Location: Newark
(41.6500°N, 71.4833°W)
Time: 07:36:26
(UTC+00:00)

A-11 Canister half - Pass Details

Date: 21 January 2020
Orbit: 1517 x 1683 km, 47.2° (Epoch: 17 February)

Event Time Altitude Azimuth Distance (km) Brightness Sun altitude
Rises 10:19:31 0° 293° (WNW) 4,665 - -20.0°
Reaches altitude 10° 10:22:33 10° 294° (WNW) 3,681 - -19.4°
Exits shadow 10:25:43 25° 296° (WNW) 2,694 9.7 -18.8°
Maximum altitude 10:31:51 84° 24° (NNE) 1,537 9.0 -17.7°
Drops below altitude 10° 10:41:18 10° 113° (ESE) 3,737 12.3 -16.0°
Sets 10:44:24 0° 114° (ESE) 4,739 13.3 -15.4°
